Powrót do katalogu

CZ-6A DEB

AktywnySSO
NORAD 54522·DEBRIS·🇨🇳 China

Wystrzelony Nov 11, 2022 z Taiyuan Satellite Launch Center

Loading…

Następne Przeloty (najbliższe 24 godziny)

TLE

ŚwieżeSource: Space-Track

Epoka: Sep 14, 2026, 03:45 UTC

1 54522U 22151KA  26257.15674332  .00000716  00000-0  47295-3 0  9996
2 54522  98.8976 236.1942 0108619 180.2539 179.8589 14.01981387196103

Śledź CZ-6A DEB w czasie rzeczywistym z AllMySat

Download on the App Store